Philadelphia Wings Airport, PA

9:50 PM EST on November 22, 2017 (GMT -0500)
Philadelphia Wings Airport

Weather History for KLOM - November, 2012

Change the Weather History Date:

Thursday, November 1, 2012

  Actual Average (KPNE) Record (KPNE)
Temperature  
Mean Temperature 44 °F -  
Max Temperature 51 °F 58 °F 78 °F (2003)
Min Temperature 37 °F 39 °F 33 °F (2002)
Degree Days  
Heating Degree Days 21    
Moisture  
Dew Point 37 °F    
Average Humidity 73    
Maximum Humidity 93    
Minimum Humidity 58    
Precipitation  
Precipitation 0.00 in - - ()
Sea Level Pressure  
Sea Level Pressure 29.62 in    
Wind  
Wind Speed 3 mph (WSW)    
Max Wind Speed 12 mph    
Max Gust Speed 18 mph    
Visibility 10 miles    
Events      
Averages and records for this station are not official NWS values.
T = Trace of Precipitation, MM = Missing Value Source: NWS Daily Summary

Daily Weather History Graph

Daily Weather History Graph

Search for Another Location

Airport or City:

Trip Planner

Search our weather history database for the weather conditions in past years. The results will help you decide how hot, cold, wet, or windy it might be!

Date:

Astronomy

Nov. 01, 2012 Rise Set
Actual Time 7:30 AM EDT 5:57 PM EDT
Civil Twilight 7:02 AM EDT 6:25 PM EDT
Nautical Twilight 6:30 AM EDT 6:58 PM EDT
Astronomical Twilight 5:58 AM EDT 7:29 PM EDT
Moon 7:52 PM EDT (11/1) 10:01 AM EDT (11/1)
Length of Visible Light 11h 23m
Length of Day
10h 26m
Waning Gibbous, 93% of the Moon is Illuminated
Nov 1
Waning Gibbous
Nov 6
Last Quarter
Nov 13
New
Nov 20
First Quarter
Nov 28
Full

Hourly Weather History & Observations

Time (EDT) Temp. Windchill Dew Point Humidity Pressure Visibility Wind Dir Wind Speed Gust Speed Precip Events Conditions
12:15 AM 41.0 °F - 37.4 °F 87% 29.59 in 10.0 mi Calm Calm - N/A   Clear
12:35 AM 41.0 °F - 37.4 °F 87% 29.59 in 10.0 mi Calm Calm - N/A   Clear
12:55 AM 42.8 °F - 39.2 °F 87% 29.59 in 10.0 mi Calm Calm - N/A   Clear
1:15 AM 42.8 °F - 37.4 °F 81% 29.59 in 10.0 mi Calm Calm - N/A   Clear
1:35 AM 42.8 °F - 37.4 °F 81% 29.59 in 10.0 mi Calm Calm - N/A   Clear
1:55 AM 42.8 °F - 37.4 °F 81% 29.59 in 10.0 mi Calm Calm - N/A   Scattered Clouds
2:15 AM 44.6 °F - 37.4 °F 76% 29.59 in 10.0 mi Calm Calm - N/A   Clear
2:35 AM 42.8 °F - 37.4 °F 81% 29.59 in 10.0 mi Calm Calm - N/A   Clear
2:55 AM 41.0 °F - 35.6 °F 81% 29.59 in 10.0 mi Calm Calm - N/A   Clear
3:15 AM 39.2 °F - 35.6 °F 87% 29.59 in 10.0 mi Calm Calm - N/A   Clear
3:35 AM 39.2 °F - 35.6 °F 87% 29.59 in 10.0 mi Calm Calm - N/A   Clear
3:55 AM 37.4 °F - 35.6 °F 93% 29.59 in 10.0 mi Calm Calm - N/A   Clear
4:15 AM 37.4 °F - 35.6 °F 93% 29.59 in 10.0 mi Calm Calm - N/A   Clear
4:35 AM 37.4 °F 34.9 °F 35.6 °F 93% 29.60 in 10.0 mi SW 3.5 mph - N/A   Scattered Clouds
5:15 AM 41.0 °F - 37.4 °F 87% 29.60 in 10.0 mi Calm Calm - N/A   Mostly Cloudy
5:35 AM 41.0 °F - 35.6 °F 81% 29.60 in 10.0 mi Calm Calm - N/A   Scattered Clouds
5:55 AM 41.0 °F 39.0 °F 35.6 °F 81% 29.60 in 10.0 mi SW 3.5 mph - N/A   Mostly Cloudy
6:15 AM 41.0 °F 38.0 °F 35.6 °F 81% 29.60 in 10.0 mi SW 4.6 mph - N/A   Mostly Cloudy
6:35 AM 41.0 °F 39.0 °F 35.6 °F 81% 29.60 in 10.0 mi SW 3.5 mph - N/A   Overcast
6:55 AM 41.0 °F - 37.4 °F 87% 29.60 in 10.0 mi Calm Calm - N/A   Scattered Clouds
7:15 AM 39.2 °F - 37.4 °F 93% 29.60 in 10.0 mi Calm Calm - N/A   Scattered Clouds
7:35 AM 39.2 °F 35.9 °F 37.4 °F 93% 29.60 in 10.0 mi SW 4.6 mph - N/A   Clear
7:55 AM 41.0 °F 39.0 °F 37.4 °F 87% 29.61 in 10.0 mi SW 3.5 mph - N/A   Clear
8:15 AM 44.6 °F 43.1 °F 37.4 °F 76% 29.61 in 10.0 mi SW 3.5 mph - N/A   Mostly Cloudy
8:35 AM 44.6 °F 41.4 °F 37.4 °F 76% 29.62 in 10.0 mi WSW 5.8 mph - N/A   Overcast
8:55 AM 44.6 °F 41.4 °F 37.4 °F 76% 29.62 in 10.0 mi West 5.8 mph - N/A   Mostly Cloudy
9:35 AM 46.4 °F 42.9 °F 37.4 °F 71% 29.62 in 10.0 mi West 6.9 mph - N/A   Overcast
9:55 AM 48.2 °F - 37.4 °F 66% 29.63 in 10.0 mi West 4.6 mph - N/A   Scattered Clouds
10:15 AM 50.0 °F - 37.4 °F 62% 29.63 in 10.0 mi WSW 5.8 mph - N/A   Mostly Cloudy
10:35 AM 50.0 °F - 37.4 °F 62% 29.63 in 10.0 mi West 11.5 mph 16.1 mph N/A   Mostly Cloudy
10:55 AM 50.0 °F - 37.4 °F 62% 29.63 in 10.0 mi West 6.9 mph - N/A   Mostly Cloudy
11:15 AM 50.0 °F - 37.4 °F 62% 29.64 in 10.0 mi West 8.1 mph - N/A   Overcast
11:35 AM 50.0 °F - 37.4 °F 62% 29.64 in 10.0 mi West 10.4 mph - N/A   Overcast
11:55 AM 50.0 °F - 37.4 °F 62% 29.63 in 10.0 mi West 9.2 mph 17.3 mph N/A   Overcast
12:15 PM 50.0 °F - 37.4 °F 62% 29.63 in 10.0 mi West 8.1 mph 17.3 mph N/A   Overcast
12:35 PM 50.0 °F - 37.4 °F 62% 29.62 in 10.0 mi West 10.4 mph 17.3 mph N/A   Overcast
12:55 PM 51.8 °F - 37.4 °F 58% 29.62 in 10.0 mi West 10.4 mph 17.3 mph N/A   Overcast
1:15 PM 51.8 °F - 37.4 °F 58% 29.62 in 10.0 mi West 11.5 mph 18.4 mph N/A   Overcast
1:35 PM 50.0 °F - 37.4 °F 62% 29.61 in 10.0 mi WNW 10.4 mph 16.1 mph N/A   Overcast
1:55 PM 50.0 °F - 39.2 °F 66% 29.61 in 10.0 mi West 9.2 mph - N/A   Overcast
2:15 PM 50.0 °F - 39.2 °F 66% 29.61 in 10.0 mi West 5.8 mph - N/A   Overcast
2:35 PM 50.0 °F - 37.4 °F 62% 29.60 in 10.0 mi West 10.4 mph - N/A   Overcast
3:15 PM 50.0 °F - 37.4 °F 62% 29.61 in 10.0 mi West 10.4 mph - N/A   Overcast
3:35 PM 50.0 °F - 39.2 °F 66% 29.61 in 10.0 mi West 5.8 mph - N/A   Overcast
4:35 PM 50.0 °F - 37.4 °F 62% 29.62 in 10.0 mi WSW 6.9 mph - N/A   Overcast
4:55 PM 50.0 °F - 37.4 °F 62% 29.62 in 10.0 mi West 8.1 mph - N/A   Overcast
5:15 PM 50.0 °F - 39.2 °F 66% 29.62 in 10.0 mi West 5.8 mph - N/A   Overcast
5:35 PM 50.0 °F - 37.4 °F 62% 29.62 in 10.0 mi West 4.6 mph - N/A   Overcast
6:15 PM 48.2 °F - 39.2 °F 71% 29.63 in 10.0 mi WSW 4.6 mph - N/A   Overcast
6:35 PM 48.2 °F - 39.2 °F 71% 29.63 in 10.0 mi WSW 4.6 mph - N/A   Overcast
7:15 PM 48.2 °F - 39.2 °F 71% 29.64 in 10.0 mi West 4.6 mph - N/A   Overcast
7:35 PM 48.2 °F - 39.2 °F 71% 29.64 in 10.0 mi West 3.5 mph - N/A   Overcast
7:55 PM 48.2 °F - 37.4 °F 66% 29.65 in 10.0 mi WSW 5.8 mph - N/A   Overcast
8:15 PM 48.2 °F - 37.4 °F 66% 29.64 in 10.0 mi West 4.6 mph - N/A   Overcast
8:35 PM 46.4 °F 44.3 °F 37.4 °F 71% 29.65 in 10.0 mi WSW 4.6 mph - N/A   Scattered Clouds
8:55 PM 46.4 °F 45.2 °F 37.4 °F 71% 29.65 in 10.0 mi West 3.5 mph - N/A   Clear
9:15 PM 46.4 °F 45.2 °F 37.4 °F 71% 29.65 in 10.0 mi WSW 3.5 mph - N/A   Scattered Clouds
9:35 PM 46.4 °F 45.2 °F 37.4 °F 71% 29.65 in 10.0 mi WSW 3.5 mph - N/A   Mostly Cloudy
9:55 PM 46.4 °F - 37.4 °F 71% 29.66 in 10.0 mi Calm Calm - N/A   Overcast
10:15 PM 46.4 °F 45.2 °F 37.4 °F 71% 29.66 in 10.0 mi WSW 3.5 mph - N/A   Mostly Cloudy
10:35 PM 46.4 °F - 37.4 °F 71% 29.66 in 10.0 mi Calm Calm - N/A   Mostly Cloudy
10:55 PM 46.4 °F - 37.4 °F 71% 29.66 in 10.0 mi Calm Calm - N/A   Scattered Clouds
11:15 PM 46.4 °F 45.2 °F 37.4 °F 71% 29.66 in 10.0 mi WSW 3.5 mph - N/A   Mostly Cloudy
11:35 PM 46.4 °F 44.3 °F 37.4 °F 71% 29.66 in 10.0 mi West 4.6 mph - N/A   Overcast
11:55 PM 46.4 °F 44.3 °F 37.4 °F 71% 29.66 in 10.0 mi West 4.6 mph - N/A   Overcast